Location: Caltech
(34.1382°N, 118.1253°W)
Time: 20:02:49
(UTC-07:00)

Transit 2A - Visible Passes

Search period start: 23 June 2018 00:00
Search period end: 03 July 2018 00:00
Orbit: 601 x 958 km, 66.7° (Epoch: 23 June)

Date Brightness Start Highest point End Pass type
(mag) Time Alt. Az. Time Alt. Az. Time Alt. Az.
23 Jun 7.3 01:38:39 10° N 01:41:40 28° NE 01:41:40 28° NE visible
24 Jun 7.8 01:05:06 10° N 01:07:48 20° NE 01:07:48 20° NE visible
24 Jun 7.9 02:47:38 10° NW 02:48:15 13° NW 02:48:15 13° NW visible
25 Jun 8.2 00:32:00 10° NNE 00:34:02 13° NE 00:34:02 13° NE visible
25 Jun 7.7 02:13:16 10° NW 02:14:29 18° NW 02:14:29 18° NW visible
26 Jun 7.6 01:39:07 10° NNW 01:40:48 23° NNW 01:40:48 23° NNW visible
27 Jun 7.5 01:05:08 10° NNW 01:07:10 26° N 01:07:10 26° N visible
28 Jun 7.6 00:31:19 10° N 00:33:36 25° NNE 00:33:36 25° NNE visible
28 Jun 7.7 23:57:43 10° N 00:00:05 20° NE 00:00:05 20° NE visible
29 Jun 8.3 01:40:29 10° NW 01:40:32 10° NW 01:40:32 10° NW visible
29 Jun 7.9 23:24:27 10° NNE 23:26:36 14° NE 23:26:36 14° NE visible
30 Jun 8.0 01:06:04 10° NW 01:07:04 16° NW 01:07:04 16° NW visible
01 Jul 7.6 00:31:52 10° NNW 00:33:38 24° NNW 00:33:38 24° NNW visible
01 Jul 7.2 23:57:51 10° NNW 00:00:14 31° N 00:00:14 31° N visible
02 Jul 7.0 23:24:00 10° N 23:26:53 32° NNE 23:26:53 32° NNE visible
